TimeEST,TemperatureF,Dew PointF,Humidity,Sea Level PressureIn,VisibilityMPH,Wind Direction,Wind SpeedMPH,Gust SpeedMPH,PrecipitationIn,Events,Conditions,WindDirDegrees,DateUTC
12:53 AM,75.0,68.0,79,30.26,10.0,East,9.2,-,N/A,,Scattered Clouds,90,2013-01-11 05:53:00
1:53 AM,75.0,68.0,79,30.25,10.0,East,12.7,-,N/A,,Mostly Cloudy,90,2013-01-11 06:53:00
2:53 AM,75.0,66.0,73,30.22,10.0,ESE,12.7,-,N/A,,Mostly Cloudy,120,2013-01-11 07:53:00
3:53 AM,75.0,66.9,76,30.20,10.0,ESE,10.4,-,N/A,,Scattered Clouds,110,2013-01-11 08:53:00
4:53 AM,75.0,68.0,79,30.19,10.0,SE,12.7,-,N/A,,Mostly Cloudy,130,2013-01-11 09:53:00
5:53 AM,75.0,66.9,76,30.19,10.0,ESE,12.7,-,0.00,,Mostly Cloudy,120,2013-01-11 10:53:00
6:53 AM,75.0,66.0,73,30.19,10.0,SE,8.1,-,N/A,,Mostly Cloudy,140,2013-01-11 11:53:00
7:53 AM,75.0,66.0,73,30.21,10.0,SE,4.6,-,N/A,,Mostly Cloudy,140,2013-01-11 12:53:00
8:53 AM,77.0,66.9,71,30.22,10.0,SE,11.5,-,N/A,,Mostly Cloudy,140,2013-01-11 13:53:00
9:38 AM,75.2,69.8,83,30.24,10.0,ESE,15.0,-,0.00,Rain,Light Rain,120,2013-01-11 14:38:00
9:53 AM,77.0,69.1,76,30.24,10.0,SE,12.7,-,0.00,,Mostly Cloudy,130,2013-01-11 14:53:00
10:53 AM,75.9,68.0,76,30.24,10.0,ESE,18.4,-,0.01,,Overcast,110,2013-01-11 15:53:00
11:37 AM,75.2,68.0,78,30.23,10.0,East,18.4,23.0,0.00,Rain,Light Rain,100,2013-01-11 16:37:00
11:53 AM,75.0,68.0,79,30.23,10.0,East,12.7,-,0.00,Rain,Light Rain,80,2013-01-11 16:53:00
12:53 PM,77.0,66.0,69,30.21,10.0,East,17.3,-,0.00,,Mostly Cloudy,80,2013-01-11 17:53:00
1:53 PM,78.1,66.9,68,30.18,10.0,East,15.0,-,N/A,,Mostly Cloudy,100,2013-01-11 18:53:00
2:53 PM,78.1,66.0,66,30.17,10.0,East,15.0,-,N/A,,Mostly Cloudy,100,2013-01-11 19:53:00
3:53 PM,79.0,66.0,64,30.17,10.0,ESE,13.8,-,N/A,,Mostly Cloudy,110,2013-01-11 20:53:00
4:53 PM,77.0,64.9,66,30.17,10.0,East,12.7,-,N/A,,Mostly Cloudy,100,2013-01-11 21:53:00
5:53 PM,75.0,64.0,69,30.17,10.0,ESE,10.4,-,N/A,,Mostly Cloudy,110,2013-01-11 22:53:00
6:53 PM,75.0,64.9,71,30.17,10.0,East,12.7,-,N/A,,Scattered Clouds,100,2013-01-11 23:53:00
7:53 PM,75.0,64.9,71,30.18,10.0,East,10.4,-,N/A,,Scattered Clouds,100,2013-01-12 00:53:00
8:53 PM,75.0,66.0,73,30.18,10.0,East,10.4,-,N/A,,Mostly Cloudy,90,2013-01-12 01:53:00
9:53 PM,75.9,64.9,69,30.18,10.0,East,15.0,-,N/A,,Mostly Cloudy,100,2013-01-12 02:53:00
10:53 PM,75.0,64.0,69,30.17,10.0,ESE,17.3,-,0.00,,Mostly Cloudy,110,2013-01-12 03:53:00
11:53 PM,73.9,63.0,68,30.17,10.0,East,13.8,-,N/A,,Scattered Clouds,100,2013-01-12 04:53:00